^^
Saratoga-Weather Station Historical Data
Daily Summary for February 16, 2020 Units:  English    Metric   Both
Daily Weekly Monthly Yearly Custom
  High: Low: Average:
Temperature: 76.3 °F 39.2 °F 57.7 °F
Dew Point: 50 °F 32 °F 40.6 °F
Humidity: 79% 31% 55%
Wind Speed: 8.1mph 0mph 1.2mph
Wind Gust: 10mph - -
Wind- - South
Pressure: 30.1 in 29.9 in -
Precipitation: 0 in    
Historical Graphs
 
 
Tabular Data for February 16, 2020
Time Temperature Dew Point Pressure Wind Wind Speed Wind Gust Humidity Rainfall Rate (Hourly) solar
00:03 47.5 °F 33.1 °F 30.1 in Calm     57% 0 in 0 W/m2
00:08 47.5 °F 33.1 °F 30.1 in Calm     57% 0 in 0 W/m2
00:13 47.3 °F 32.9 °F 30.1 in Calm     57% 0 in 0 W/m2
00:18 47.1 °F 32.7 °F 30.1 in Calm   1 mph 57% 0 in 0 W/m2
00:23 46.9 °F 32.9 °F 30.1 in Calm   1 mph 58% 0 in 0 W/m2
00:28 46.9 °F 32.5 °F 30.1 in Calm     57% 0 in 0 W/m2
00:33 46.8 °F 33.3 °F 30.1 in SSE 0.9 mph 1 mph 59% 0 in 0 W/m2
00:38 46.8 °F 32.7 °F 30.1 in Calm     58% 0 in 0 W/m2
00:43 46.6 °F 33.1 °F 30.1 in Calm     59% 0 in 0 W/m2
00:48 46.4 °F 33.3 °F 30.1 in Calm     60% 0 in 0 W/m2
00:53 46.2 °F 33.1 °F 30.1 in Calm     60% 0 in 0 W/m2
00:58 46 °F 32.9 °F 30.1 in Calm     60% 0 in 0 W/m2
01:03 46 °F 32.9 °F 30.1 in Calm     60% 0 in 0 W/m2
01:08 45.9 °F 33.3 °F 30.1 in Calm     61% 0 in 0 W/m2
01:13 45.9 °F 33.3 °F 30.1 in Calm     61% 0 in 0 W/m2
01:18 45.7 °F 33.1 °F 30.1 in Calm     61% 0 in 0 W/m2
01:23 45.5 °F 32.9 °F 30.1 in Calm   1 mph 61% 0 in 0 W/m2
01:28 45.3 °F 33.1 °F 30.1 in Calm   1 mph 62% 0 in 0 W/m2
01:33 45.1 °F 32.5 °F 30.1 in Calm   1 mph 61% 0 in 0 W/m2
01:38 45.1 °F 32.9 °F 30.1 in Calm   1 mph 62% 0 in 0 W/m2
01:43 45 °F 32.7 °F 30.1 in Calm     62% 0 in 0 W/m2
01:48 45 °F 32.7 °F 30.1 in Calm     62% 0 in 0 W/m2
01:53 44.8 °F 32.9 °F 30.1 in Calm     63% 0 in 0 W/m2
01:58 44.6 °F 32.7 °F 30.1 in Calm   1 mph 63% 0 in 0 W/m2
02:03 44.6 °F 32.7 °F 30.1 in Calm   1 mph 63% 0 in 0 W/m2
02:08 44.6 °F 32.7 °F 30.1 in Calm   1 mph 63% 0 in 0 W/m2
02:13 44.4 °F 32.5 °F 30.1 in Calm   1 mph 63% 0 in 0 W/m2
02:18 44.4 °F 32.5 °F 30.1 in Calm   1 mph 63% 0 in 0 W/m2
02:23 44.4 °F 33.1 °F 30.1 in Calm     64% 0 in 0 W/m2
02:28 44.2 °F 33.3 °F 30.1 in Calm   1 mph 65% 0 in 0 W/m2
02:33 44.2 °F 32.9 °F 30.1 in Calm     64% 0 in 0 W/m2
02:38 44.1 °F 33.1 °F 30.1 in Calm     65% 0 in 0 W/m2
02:43 44.1 °F 33.1 °F 30.1 in Calm     65% 0 in 0 W/m2
02:48 43.7 °F 33.1 °F 30.1 in Calm     66% 0 in 0 W/m2
02:53 43.5 °F 32.9 °F 30.1 in Calm     66% 0 in 0 W/m2
02:58 43.3 °F 33.1 °F 30.1 in Calm     67% 0 in 0 W/m2
03:03 43.3 °F 33.1 °F 30.1 in Calm     67% 0 in 0 W/m2
03:08 43.3 °F 33.1 °F 30.1 in Calm     67% 0 in 0 W/m2
03:13 43.3 °F 33.1 °F 30.1 in Calm     67% 0 in 0 W/m2
03:18 43.2 °F 32.9 °F 30.1 in Calm     67% 0 in 0 W/m2
03:23 43.2 °F 32.9 °F 30.1 in Calm     67% 0 in 0 W/m2
03:28 43 °F 32.7 °F 30.1 in Calm   1 mph 67% 0 in 0 W/m2
03:33 43 °F 32.7 °F 30.1 in Calm     67% 0 in 0 W/m2
03:38 43 °F 32.7 °F 30.1 in Calm   1 mph 67% 0 in 0 W/m2
03:43 43 °F 32.7 °F 30.1 in Calm     67% 0 in 0 W/m2
03:48 42.8 °F 32.5 °F 30.1 in Calm     67% 0 in 0 W/m2
03:53 42.6 °F 32.4 °F 30.1 in Calm     67% 0 in 0 W/m2
03:58 42.4 °F 32.2 °F 30.1 in Calm     67% 0 in 0 W/m2
04:03 42.4 °F 32.7 °F 30.1 in Calm     68% 0 in 0 W/m2
04:08 42.3 °F 32.5 °F 30.1 in Calm     68% 0 in 0 W/m2
04:13 42.1 °F 32.4 °F 30.1 in Calm     68% 0 in 0 W/m2
04:18 41.9 °F 32.5 °F 30.1 in Calm     69% 0 in 0 W/m2
04:23 41.7 °F 32.4 °F 30.1 in Calm     69% 0 in 0 W/m2
04:28 41.5 °F 32.2 °F 30.1 in Calm     69% 0 in 0 W/m2
04:33 41.4 °F 32.4 °F 30.1 in Calm     70% 0 in 0 W/m2
04:38 41.2 °F 32.2 °F 30.1 in Calm     70% 0 in 0 W/m2
04:43 41 °F 32 °F 30.1 in Calm     70% 0 in 0 W/m2
04:48 40.8 °F 32.2 °F 30.1 in Calm     71% 0 in 0 W/m2
04:53 41 °F 32.4 °F 30.1 in Calm     71% 0 in 0 W/m2
04:58 40.8 °F 32.2 °F 30.1 in Calm     71% 0 in 0 W/m2
05:03 40.8 °F 32.2 °F 30.1 in Calm     71% 0 in 0 W/m2
05:08 40.8 °F 32.2 °F 30.1 in Calm     71% 0 in 0 W/m2
05:13 40.6 °F 32 °F 30.1 in Calm     71% 0 in 0 W/m2
05:18 40.6 °F 32.4 °F 30.1 in Calm     72% 0 in 0 W/m2
05:23 40.5 °F 32.5 °F 30.1 in Calm     73% 0 in 0 W/m2
05:28 40.5 °F 32.2 °F 30.1 in Calm     72% 0 in 0 W/m2
05:33 40.5 °F 32.5 °F 30.1 in Calm     73% 0 in 0 W/m2
05:38 40.5 °F 32.5 °F 30.1 in Calm     73% 0 in 0 W/m2
05:43 40.3 °F 32.4 °F 30 in Calm     73% 0 in 0 W/m2
05:48 40.3 °F 32.7 °F 30 in Calm     74% 0 in 0 W/m2
05:53 40.3 °F 32.7 °F 30 in Calm     74% 0 in 0 W/m2
05:58 40.1 °F 32.5 °F 30 in Calm     74% 0 in 0 W/m2
06:03 39.9 °F 32.7 °F 30.1 in Calm     75% 0 in 0 W/m2
06:08 39.9 °F 32.7 °F 30.1 in Calm     75% 0 in 0 W/m2
06:13 39.9 °F 32.7 °F 30.1 in Calm     75% 0 in 0 W/m2
06:18 39.7 °F 32.5 °F 30 in Calm     75% 0 in 0 W/m2
06:23 39.7 °F 32.7 °F 30 in Calm     76% 0 in 0 W/m2
06:28 39.6 °F 32.5 °F 30 in Calm     76% 0 in 0 W/m2
06:33 39.6 °F 32.5 °F 30 in Calm     76% 0 in 0 W/m2
06:38 39.4 °F 32.5 °F 30.1 in Calm     76% 0 in 0 W/m2
06:43 39.4 °F 32.7 °F 30 in Calm     77% 0 in 0 W/m2
06:48 39.2 °F 32.5 °F 30 in Calm     77% 0 in 7 W/m2
06:53 39.2 °F 32.9 °F 30 in Calm     78% 0 in 9 W/m2
06:58 39.2 °F 32.9 °F 30 in Calm     78% 0 in 11 W/m2
07:03 39.4 °F 33.1 °F 30.1 in Calm     78% 0 in 14 W/m2
07:08 39.4 °F 33.1 °F 30 in Calm     78% 0 in 16 W/m2
07:13 39.4 °F 33.1 °F 30.1 in Calm     78% 0 in 19 W/m2
07:18 39.4 °F 33.4 °F 30.1 in Calm     79% 0 in 21 W/m2
07:23 39.6 °F 33.6 °F 30.1 in Calm     79% 0 in 23 W/m2
07:28 39.6 °F 33.6 °F 30.1 in Calm     79% 0 in 26 W/m2
07:33 39.7 °F 33.8 °F 30.1 in Calm     79% 0 in 28 W/m2
07:38 39.9 °F 33.6 °F 30.1 in Calm     78% 0 in 30 W/m2
07:43 40.1 °F 33.8 °F 30.1 in Calm     78% 0 in 32 W/m2
07:48 40.3 °F 34 °F 30.1 in Calm     78% 0 in 33 W/m2
07:53 40.6 °F 34.3 °F 30.1 in Calm     78% 0 in 69 W/m2
07:58 41 °F 34.3 °F 30.1 in Calm     77% 0 in 76 W/m2
08:03 41.9 °F 35.2 °F 30.1 in Calm   2 mph 77% 0 in 153 W/m2
08:08 42.8 °F 35.1 °F 30.1 in Calm   1 mph 74% 0 in 163 W/m2
08:13 43.5 °F 35.1 °F 30.1 in Calm   2 mph 72% 0 in 178 W/m2
08:18 44.4 °F 36 °F 30.1 in SE 0.9 mph 2 mph 72% 0 in 190 W/m2
08:23 45.1 °F 36 °F 30.1 in Calm   1 mph 70% 0 in 204 W/m2
08:28 45.9 °F 36 °F 30.1 in ESE 0.9 mph 1 mph 68% 0 in 216 W/m2
08:33 46.4 °F 36 °F 30.1 in East 0.9 mph 2 mph 67% 0 in 234 W/m2
08:38 46.9 °F 35.8 °F 30.1 in ENE 2 mph 3 mph 65% 0 in 251 W/m2
08:43 47.1 °F 35.2 °F 30.1 in NE 2.9 mph 3 mph 63% 0 in 276 W/m2
08:48 47.5 °F 35.6 °F 30.1 in NE 2 mph 3 mph 63% 0 in 290 W/m2
08:53 47.5 °F 35.6 °F 30.1 in NE 0.9 mph 3 mph 63% 0 in 218 W/m2
08:58 47.8 °F 35.4 °F 30.1 in East 2.9 mph 3 mph 62% 0 in 278 W/m2
09:03 48 °F 35.2 °F 30.1 in East 0.9 mph 2 mph 61% 0 in 276 W/m2
09:08 48.4 °F 35.6 °F 30.1 in ENE 2 mph 3 mph 61% 0 in 330 W/m2
09:13 48.6 °F 35.8 °F 30.1 in NE 2 mph 2 mph 61% 0 in 299 W/m2
09:18 48.7 °F 36 °F 30.1 in ENE 2 mph 3 mph 61% 0 in 295 W/m2
09:23 48.9 °F 36.5 °F 30.1 in East 0.9 mph 1 mph 62% 0 in 357 W/m2
09:28 49.3 °F 36.3 °F 30.1 in NE 2 mph 4 mph 61% 0 in 360 W/m2
09:33 49.6 °F 37.6 °F 30.1 in NE 2 mph 2 mph 63% 0 in 376 W/m2
09:38 50.2 °F 37.6 °F 30.1 in ENE 2.9 mph 4 mph 62% 0 in 401 W/m2
09:43 50.9 °F 38.3 °F 30.1 in East 2 mph 3 mph 62% 0 in 388 W/m2
09:48 51.4 °F 38.5 °F 30.1 in ESE 2 mph 2 mph 61% 0 in 97 W/m2
09:53 52 °F 39 °F 30.1 in NE 0.9 mph 2 mph 61% 0 in 346 W/m2
09:58 52.7 °F 39.2 °F 30.1 in ESE 2 mph 2 mph 60% 0 in 441 W/m2
10:03 53.8 °F 39.7 °F 30.1 in ESE 2 mph 3 mph 59% 0 in 457 W/m2
10:08 54.5 °F 39.6 °F 30.1 in ENE 0.9 mph 3 mph 57% 0 in 466 W/m2
10:13 54.7 °F 39.7 °F 30.1 in ENE 0.9 mph 3 mph 57% 0 in 476 W/m2
10:18 55 °F 39.6 °F 30.1 in NNW 2 mph 5 mph 56% 0 in 490 W/m2
10:23 55.4 °F 40.5 °F 30.1 in NE 2.9 mph 4 mph 57% 0 in 501 W/m2
10:28 55.6 °F 41 °F 30.1 in Calm   5 mph 58% 0 in 510 W/m2
10:33 56.1 °F 41.2 °F 30.1 in ENE 2 mph 2 mph 57% 0 in 501 W/m2
10:38 56.5 °F 41 °F 30.1 in East 2.9 mph 5 mph 56% 0 in 473 W/m2
10:43 57 °F 41.9 °F 30.1 in SE 2 mph 2 mph 57% 0 in 543 W/m2
10:48 57.7 °F 41.7 °F 30.1 in NE 2 mph 2 mph 55% 0 in 545 W/m2
10:53 57.9 °F 41.4 °F 30 in ENE 0.9 mph 2 mph 54% 0 in 531 W/m2
10:58 58.3 °F 42.3 °F 30 in Calm   2 mph 55% 0 in 575 W/m2
11:03 59.2 °F 42.6 °F 30 in South 0.9 mph 2 mph 54% 0 in 541 W/m2
11:08 60.1 °F 43 °F 30 in NE 0.9 mph 4 mph 53% 0 in 570 W/m2
11:13 60.6 °F 43 °F 30 in ENE 2.9 mph 3 mph 52% 0 in 612 W/m2
11:18 61.3 °F 43 °F 30 in Calm   2 mph 51% 0 in 631 W/m2
11:23 61.7 °F 43.3 °F 30 in East 0.9 mph 2 mph 51% 0 in 689 W/m2
11:28 62.2 °F 43.3 °F 30 in NE 0.9 mph 6 mph 50% 0 in 410 W/m2
11:33 62.1 °F 43.7 °F 30 in Calm   4 mph 51% 0 in 503 W/m2
11:38 62.4 °F 43.5 °F 30 in Calm   6 mph 50% 0 in 568 W/m2
11:43 62.6 °F 44.2 °F 30 in North 0.9 mph 3 mph 51% 0 in 578 W/m2
11:48 63.1 °F 44.8 °F 30 in ENE 0.9 mph 4 mph 51% 0 in 596 W/m2
11:53 63.5 °F 45.5 °F 30 in NE 2 mph 3 mph 52% 0 in 714 W/m2
11:58 64 °F 45.5 °F 30 in ESE 0.9 mph 2 mph 51% 0 in 700 W/m2
12:03 64.6 °F 45.5 °F 30 in NE 2 mph 4 mph 50% 0 in 571 W/m2
12:08 64.8 °F 45.7 °F 30 in ENE 4 mph 4 mph 50% 0 in 480 W/m2
12:13 64.9 °F 45.3 °F 30 in Calm   1 mph 49% 0 in 473 W/m2
12:19 65.1 °F 45.5 °F 30 in NE 0.9 mph 1 mph 49% 0 in 380 W/m2
12:24 65.8 °F 46.2 °F 30 in East 3 mph 3 mph 49% 0 in 422 W/m2
12:29 66.4 °F 47.1 °F 30 in SE 2 mph 3 mph 50% 0 in 459 W/m2
12:34 66.9 °F 47.1 °F 30 in ENE 0.9 mph 2 mph 49% 0 in 413 W/m2
12:39 67.3 °F 46.4 °F 30 in Calm   1 mph 47% 0 in 388 W/m2
12:44 67.5 °F 46.6 °F 30 in East 0.9 mph 3 mph 47% 0 in 413 W/m2
12:49 67.6 °F 46.8 °F 30 in Calm   2 mph 47% 0 in 392 W/m2
12:54 67.8 °F 45.7 °F 30 in NE 2.9 mph 3 mph 45% 0 in 410 W/m2
12:59 68 °F 45.9 °F 30 in ENE 2.9 mph 3 mph 45% 0 in 415 W/m2
13:04 68 °F 46.4 °F 30 in Calm   3 mph 46% 0 in 425 W/m2
13:09 68.2 °F 46.6 °F 30 in Calm   2 mph 46% 0 in 557 W/m2
13:14 68.5 °F 46.4 °F 30 in ESE 2 mph 6 mph 45% 0 in 738 W/m2
13:19 69.1 °F 46.8 °F 30 in NE 4 mph 4 mph 45% 0 in 796 W/m2
13:24 69.6 °F 47.8 °F 30 in Calm   3 mph 46% 0 in 870 W/m2
13:29 70.2 °F 47.3 °F 30 in ENE 2 mph 7 mph 44% 0 in 858 W/m2
13:34 70.7 °F 46.4 °F 30 in North 2 mph 3 mph 42% 0 in 812 W/m2
13:39 71.2 °F 45.7 °F 30 in SSE 2 mph 5 mph 40% 0 in 777 W/m2
13:44 71.8 °F 44.1 °F 30 in West 6 mph 6 mph 37% 0 in 691 W/m2
13:49 72 °F 45 °F 30 in NE 0.9 mph 6 mph 38% 0 in 438 W/m2
13:54 71.2 °F 44.2 °F 30 in West 2.9 mph 9 mph 38% 0 in 325 W/m2
13:59 70.9 °F 44.8 °F 30 in NNW 2 mph 3 mph 39% 0 in 454 W/m2
14:04 70.9 °F 45.3 °F 30 in NE 0.9 mph 5 mph 40% 0 in 422 W/m2
14:09 71.1 °F 45.5 °F 30 in Calm   6 mph 40% 0 in 345 W/m2
14:14 70.9 °F 44.8 °F 30 in WSW 2 mph 5 mph 39% 0 in 325 W/m2
14:19 70.5 °F 44.4 °F 30 in NW 2.9 mph 8 mph 39% 0 in 359 W/m2
14:24 70.3 °F 45 °F 30 in West 8.1 mph 8 mph 40% 0 in 413 W/m2
14:29 70.3 °F 45 °F 30 in WSW 4 mph 4 mph 40% 0 in 512 W/m2
14:34 70.3 °F 44.2 °F 30 in West 2 mph 4 mph 39% 0 in 499 W/m2
14:39 70.7 °F 45.9 °F 30 in North 0.9 mph 3 mph 41% 0 in 425 W/m2
14:44 70.7 °F 44.6 °F 30 in NNE 2 mph 4 mph 39% 0 in 431 W/m2
14:49 70.5 °F 46.4 °F 30 in ESE 2 mph 2 mph 42% 0 in 647 W/m2
14:54 71.2 °F 50 °F 30 in ESE 0.9 mph 2 mph 47% 0 in 765 W/m2
14:59 72.1 °F 49.1 °F 30 in Calm   3 mph 44% 0 in 751 W/m2
15:04 72.9 °F 47.1 °F 30 in East 4 mph 6 mph 40% 0 in 705 W/m2
15:09 73 °F 46.6 °F 30 in SE 2.9 mph 5 mph 39% 0 in 671 W/m2
15:14 73 °F 46.6 °F 30 in Calm   2 mph 39% 0 in 652 W/m2
15:19 73.2 °F 47.5 °F 30 in ESE 0.9 mph 6 mph 40% 0 in 633 W/m2
15:24 73.4 °F 46.2 °F 30 in Calm   4 mph 38% 0 in 591 W/m2
15:29 73.2 °F 47.5 °F 30 in WSW 4.9 mph 7 mph 40% 0 in 617 W/m2
15:34 73.2 °F 47.5 °F 30 in East 8.1 mph 8 mph 40% 0 in 615 W/m2
15:39 73.2 °F 46 °F 30 in ESE 2.9 mph 4 mph 38% 0 in 605 W/m2
15:44 73.4 °F 46.9 °F 30 in ENE 2.9 mph 4 mph 39% 0 in 594 W/m2
15:49 73.4 °F 46.2 °F 30 in Calm   3 mph 38% 0 in 584 W/m2
15:54 73.8 °F 46.6 °F 30 in ESE 2 mph 4 mph 38% 0 in 575 W/m2
15:59 74.1 °F 46.9 °F 30 in Calm   1 mph 38% 0 in 568 W/m2
16:04 74.5 °F 46.6 °F 30 in Calm   2 mph 37% 0 in 557 W/m2
16:09 75 °F 46.9 °F 30 in NE 2.9 mph 5 mph 37% 0 in 552 W/m2
16:14 74.7 °F 45.9 °F 30 in North 0.9 mph 5 mph 36% 0 in 547 W/m2
16:19 74.5 °F 45.9 °F 30 in ESE 0.9 mph 2 mph 36% 0 in 533 W/m2
16:25 74.5 °F 45.9 °F 30 in ESE 6 mph 10 mph 36% 0 in 520 W/m2
16:30 74.7 °F 44.4 °F 30 in East 2 mph 4 mph 34% 0 in 515 W/m2
16:35 74.8 °F 46 °F 30 in SE 2 mph 7 mph 36% 0 in 504 W/m2
16:40 75 °F 44.8 °F 30 in ESE 0.9 mph 6 mph 34% 0 in 497 W/m2
16:45 74.7 °F 43.7 °F 30 in NNW 0.9 mph 8 mph 33% 0 in 483 W/m2
16:50 74.5 °F 44.2 °F 30 in NE 4 mph 4 mph 34% 0 in 469 W/m2
16:55 74.3 °F 45 °F 30 in NE 4 mph 4 mph 35% 0 in 462 W/m2
17:00 74.3 °F 45.7 °F 30 in SSE 2 mph 4 mph 36% 0 in 446 W/m2
17:05 74.7 °F 44.4 °F 30 in NW 2.9 mph 4 mph 34% 0 in 436 W/m2
17:10 75 °F 44.8 °F 30 in NNW 0.9 mph 3 mph 34% 0 in 427 W/m2
17:15 75.4 °F 46.6 °F 30 in WSW 2 mph 2 mph 36% 0 in 417 W/m2
17:20 75.7 °F 44.6 °F 30 in NW 0.9 mph 1 mph 33% 0 in 410 W/m2
17:25 75.9 °F 44.8 °F 30 in ESE 2 mph 4 mph 33% 0 in 397 W/m2
17:30 76.3 °F 45.1 °F 30 in Calm   2 mph 33% 0 in 385 W/m2
17:35 75.9 °F 43.9 °F 29.9 in Calm   1 mph 32% 0 in 371 W/m2
17:40 75.9 °F 43.2 °F 30 in SW 0.9 mph 8 mph 31% 0 in 357 W/m2
17:45 75.7 °F 43.7 °F 29.9 in West 2 mph 7 mph 32% 0 in 345 W/m2
17:50 75.6 °F 43.7 °F 30 in WNW 4 mph 4 mph 32% 0 in 334 W/m2
17:55 75.4 °F 45.1 °F 29.9 in West 4 mph 8 mph 34% 0 in 315 W/m2
18:00 75 °F 43.9 °F 29.9 in West 2 mph 3 mph 33% 0 in 309 W/m2
18:05 75 °F 45.5 °F 29.9 in West 2 mph 3 mph 35% 0 in 301 W/m2
18:10 75.4 °F 45.1 °F 29.9 in West 2.9 mph 3 mph 34% 0 in 283 W/m2
18:15 75.4 °F 44.2 °F 29.9 in Calm   3 mph 33% 0 in 272 W/m2
18:20 75.6 °F 45.1 °F 29.9 in West 2 mph 6 mph 34% 0 in 257 W/m2
18:25 75.4 °F 45.1 °F 29.9 in WNW 4 mph 4 mph 34% 0 in 250 W/m2
18:30 74.8 °F 44.6 °F 29.9 in West 2.9 mph 3 mph 34% 0 in 232 W/m2
18:35 74.7 °F 45.9 °F 29.9 in NW 0.9 mph 3 mph 36% 0 in 216 W/m2
18:40 74.8 °F 46 °F 29.9 in West 2 mph 3 mph 36% 0 in 206 W/m2
18:45 74.7 °F 45.1 °F 29.9 in WSW 4.9 mph 5 mph 35% 0 in 193 W/m2
18:50 74.5 °F 45 °F 29.9 in WNW 4.9 mph 5 mph 35% 0 in 181 W/m2
18:55 74.1 °F 46.9 °F 29.9 in West 2 mph 3 mph 38% 0 in 163 W/m2
19:00 74.1 °F 45.5 °F 29.9 in SW 2 mph 4 mph 36% 0 in 141 W/m2
19:05 74.1 °F 46.2 °F 29.9 in West 2 mph 2 mph 37% 0 in 107 W/m2
19:10 73.9 °F 47.5 °F 29.9 in Calm   2 mph 39% 0 in 113 W/m2
19:15 74.1 °F 47.7 °F 29.9 in SW 0.9 mph 1 mph 39% 0 in 109 W/m2
19:20 73.9 °F 46.8 °F 29.9 in West 2 mph 4 mph 38% 0 in 98 W/m2
19:25 73.4 °F 46.9 °F 29.9 in Calm   1 mph 39% 0 in 58 W/m2
19:30 73 °F 49.3 °F 29.9 in WNW 0.9 mph 4 mph 43% 0 in 63 W/m2
19:36 72.5 °F 49.3 °F 29.9 in Calm   1 mph 44% 0 in 53 W/m2
19:41 72 °F 47.7 °F 29.9 in West 0.9 mph 2 mph 42% 0 in 39 W/m2
19:46 71.1 °F 46.8 °F 29.9 in WNW 2.9 mph 3 mph 42% 0 in 37 W/m2
19:51 70.2 °F 46 °F 29.9 in WSW 2.9 mph 7 mph 42% 0 in 40 W/m2
19:56 69.8 °F 46.2 °F 29.9 in WSW 2.9 mph 6 mph 43% 0 in 35 W/m2
20:01 69.4 °F 47.1 °F 29.9 in West 4 mph 4 mph 45% 0 in 28 W/m2
20:06 68.7 °F 46.6 °F 29.9 in West 6 mph 6 mph 45% 0 in 21 W/m2
20:11 68.5 °F 46.9 °F 29.9 in West 2 mph 3 mph 46% 0 in 18 W/m2
20:16 68.2 °F 47.1 °F 29.9 in WSW 4 mph 7 mph 47% 0 in 14 W/m2
20:21 67.8 °F 47.5 °F 30 in WSW 2.9 mph 3 mph 48% 0 in 11 W/m2
20:26 67.6 °F 47.3 °F 30 in WSW 4 mph 4 mph 48% 0 in 7 W/m2
20:31 67.3 °F 47.5 °F 30 in West 0.9 mph 4 mph 49% 0 in 0 W/m2
20:36 66.9 °F 47.1 °F 30 in WNW 4.9 mph 6 mph 49% 0 in 5 W/m2
20:41 66.7 °F 46.9 °F 30 in West 2 mph 4 mph 49% 0 in 0 W/m2
20:46 66.6 °F 47.3 °F 30 in West 2.9 mph 4 mph 50% 0 in 0 W/m2
20:51 66.4 °F 47.1 °F 30 in West 0.9 mph 2 mph 50% 0 in 0 W/m2
20:56 66 °F 47.3 °F 30 in Calm   2 mph 51% 0 in 0 W/m2
21:01 65.7 °F 47.5 °F 30 in Calm   1 mph 52% 0 in 0 W/m2
21:06 65.1 °F 47.5 °F 30 in WNW 0.9 mph 1 mph 53% 0 in 0 W/m2
21:11 64.4 °F 47.5 °F 30 in WNW 0.9 mph 2 mph 54% 0 in 0 W/m2
21:16 64 °F 47.5 °F 30 in WNW 2 mph 2 mph 55% 0 in 0 W/m2
21:21 63.7 °F 47.7 °F 30 in WNW 0.9 mph 2 mph 56% 0 in 0 W/m2
21:26 63.1 °F 47.7 °F 30 in WNW 0.9 mph 2 mph 57% 0 in 0 W/m2
21:31 63 °F 47.5 °F 30 in WNW 0.9 mph 2 mph 57% 0 in 0 W/m2
21:36 62.8 °F 47.8 °F 30 in Calm   3 mph 58% 0 in 0 W/m2
21:41 62.2 °F 47.7 °F 30 in WNW 0.9 mph 2 mph 59% 0 in 0 W/m2
21:46 61.7 °F 47.3 °F 30 in West 0.9 mph 2 mph 59% 0 in 0 W/m2
21:51 61.5 °F 47.5 °F 30 in West 2.9 mph 3 mph 60% 0 in 0 W/m2
21:56 61.9 °F 47.5 °F 30 in WSW 2 mph 6 mph 59% 0 in 0 W/m2
22:01 62.4 °F 47.5 °F 30 in West 6.9 mph 7 mph 58% 0 in 0 W/m2
22:06 63.1 °F 47.7 °F 30 in West 4 mph 6 mph 57% 0 in 0 W/m2
22:11 63.7 °F 47.7 °F 30 in WSW 4 mph 7 mph 56% 0 in 0 W/m2
22:16 63.9 °F 47.8 °F 30 in West 2.9 mph 6 mph 56% 0 in 0 W/m2
22:21 63.9 °F 47.8 °F 30 in West 6 mph 8 mph 56% 0 in 0 W/m2
22:27 63.9 °F 47.8 °F 30 in West 2 mph 6 mph 56% 0 in 0 W/m2
22:32 63.7 °F 48.2 °F 30 in West 2.9 mph 8 mph 57% 0 in 0 W/m2
22:37 63.7 °F 48.2 °F 30 in West 0.9 mph 4 mph 57% 0 in 0 W/m2
22:42 63.5 °F 48 °F 30 in West 2 mph 4 mph 57% 0 in 0 W/m2
22:47 63.3 °F 47.8 °F 30 in West 2 mph 3 mph 57% 0 in 0 W/m2
22:52 63.1 °F 47.7 °F 30 in WSW 2 mph 4 mph 57% 0 in 0 W/m2
22:57 63.1 °F 47.7 °F 30 in West 4 mph 5 mph 57% 0 in 0 W/m2
23:02 63.1 °F 47.7 °F 30 in WSW 2 mph 4 mph 57% 0 in 0 W/m2
23:07 63.1 °F 48.2 °F 30 in West 0.9 mph 6 mph 58% 0 in 0 W/m2
23:12 63.1 °F 48.2 °F 30 in WSW 2 mph 2 mph 58% 0 in 0 W/m2
23:17 63 °F 48 °F 30 in WSW 0.9 mph 2 mph 58% 0 in 0 W/m2
23:22 62.8 °F 47.8 °F 30 in Calm   1 mph 58% 0 in 0 W/m2
23:27 62.4 °F 47.8 °F 30 in West 0.9 mph 2 mph 59% 0 in 0 W/m2
23:32 61.9 °F 48.2 °F 30 in Calm     61% 0 in 0 W/m2
23:37 61.3 °F 48.2 °F 30 in Calm     62% 0 in 0 W/m2
23:42 60.6 °F 48 °F 30 in Calm     63% 0 in 0 W/m2
23:47 60.1 °F 47.8 °F 30 in Calm     64% 0 in 0 W/m2
23:52 59.4 °F 47.7 °F 30 in Calm     65% 0 in 0 W/m2
23:57 58.8 °F 47.5 °F 30 in Calm     66% 0 in 0 W/m2
Juneau County Weather
Compliments of Weather Underground - 2 mb